EW5897 Weather Reports


Display with metric or nautical units.
time (UTC)temp
F
wind
direction
speed
MPH
gust
MPH
rain 1hr
in
rain 24hr
in
rain mn
in
humidity
%
barometer
mb
20260502185912 60 301 18.0 24.0 0.00 0.00 0.00 40 1011.5
20260502184400 60 18 18.0 25.0 0.00 0.00 0.00 40 1011.3
20260502182859 59 294 17.0 28.0 0.00 0.00 0.00 41 1011.7
20260502180916 59 300 17.0 24.0 0.00 0.00 0.00 41 1011.4
20260502170352 58 297 17.0 28.0 0.00 0.00 0.00 54 1011.2
20260502162856 56 302 16.0 23.0 0.00 0.00 0.00 58 1011.1
20260502160912 56 10 13.0 20.0 0.00 0.00 0.00 58 1010.9
20260502151356 54 288 14.0 24.0 0.00 0.00 0.00 64 1010.4
20260502122404 44 315 17.0 24.0 0.00 0.00 0.00 75 1007.6
20260502120408 42 311 16.0 22.0 0.00 0.00 0.00 77 1007.3
20260502114853 43 306 14.0 22.0 0.00 0.00 0.00 77 1007.4
20260502113348 43 306 11.0 19.0 0.00 0.00 0.00 76 1007.4
20260502111409 44 273 10.0 16.0 0.00 0.00 0.00 76 1007.2
20260502105857 45 274 9.0 12.0 0.00 0.00 0.00 75 1007.2
20260502103914 46 269 7.0 10.0 0.00 0.00 0.00 73 1007.0
20260502101850 47 273 6.0 10.0 0.00 0.00 0.00 70 1007.1
20260502090852 43 249 0.0 2.0 0.00 0.00 0.00 71 1006.7
20260502070858 49 150 3.0 7.0 0.00 0.00 0.00 54 1007.2
20260502064920 50 109 2.0 4.0 0.00 0.00 0.00 54 1007.5
20260502063414 50 98 1.0 5.0 0.00 0.00 0.00 53 1007.8
20260502061910 51 91 0.0 4.0 0.00 0.00 0.00 52 1008.3
20260502055925 51 103 0.0 4.0 0.00 0.00 0.00 51 1008.7
20260502054409 51 94 1.0 3.0 0.00 0.00 0.00 52 1008.7
20260502052412 49 92 2.0 4.0 0.00 0.00 0.00 57 1008.9
20260502050419 51 86 2.0 6.0 0.00 0.00 0.00 52 1008.9
20260502044916 52 119 0.0 2.0 0.00 0.00 0.00 48 1009.1
20260502042924 52 119 1.0 2.0 0.00 0.00 0.00 51 1009.1
20260502041357 51 110 1.0 3.0 0.00 0.00 0.00 50 1009.2
20260502035424 51 143 0.0 3.0 0.00 0.00 0.00 49 1009.6
20260502033917 52 170 1.0 4.0 0.00 0.00 0.00 46 1009.6
20260502032417 53 147 1.0 3.0 0.00 0.00 0.00 43 1009.7
20260502030914 53 123 1.0 3.0 0.00 0.00 0.00 42 1009.7
20260502024917 54 134 1.0 3.0 0.00 0.00 0.00 42 1010.1
20260502023358 54 131 1.0 3.0 0.00 0.00 0.00 43 1010.3
20260502021419 56 132 2.0 4.0 0.00 0.00 0.00 37 1010.5
20260502015916 57 171 0.0 2.0 0.00 0.00 0.00 40 1010.7
20260502013919 60 167 1.0 3.0 0.00 0.00 0.00 35 1010.9
20260502012412 62 155 0.0 3.0 0.00 0.00 0.00 32 1011.1
20260502010420 64 166 3.0 5.0 0.00 0.00 0.00 29 1011.2
20260502004910 65 185 4.0 10.0 0.00 0.00 0.00 27 1011.2
20260502002420 66 174 6.0 10.0 0.00 0.00 0.00 28 1011.2
20260502000909 67 193 8.0 14.0 0.00 0.00 0.00 27 1011.3
20260501235405 67 194 8.0 13.0 0.00 0.00 0.00 27 1011.3
20260501233404 67 196 11.0 15.0 0.00 0.00 0.00 25 1011.5
20260501231421 67 187 8.0 13.0 0.00 0.00 0.00 28 1011.7
20260501225418 67 200 9.0 14.0 0.00 0.00 0.00 26 1012.0
20260501223415 67 169 10.0 14.0 0.00 0.00 0.00 26 1012.2
20260501221906 67 211 6.0 15.0 0.00 0.00 0.00 28 1012.4
20260501215919 67 235 7.0 12.0 0.00 0.00 0.00 29 1012.6
20260501213914 66 211 8.0 18.0 0.00 0.00 0.00 28 1012.9
20260501212410 66 229 8.0 12.0 0.00 0.00 0.00 29 1013.1
20260501210419 66 179 6.0 15.0 0.00 0.00 0.00 29 1013.5
20260501204907 66 217 8.0 17.0 0.00 0.00 0.00 30 1013.7
20260501202912 65 209 7.0 14.0 0.00 0.00 0.00 31 1013.6
20260501201411 64 194 5.0 16.0 0.00 0.00 0.00 30 1014.0
20260501195414 65 200 5.0 19.0 0.00 0.00 0.00 30 1014.2
20260501193415 64 229 11.0 16.0 0.00 0.00 0.00 32 1014.3
20260501191417 64 200 7.0 17.0 0.00 0.00 0.00 30 1014.5